Home > Weather > Haugesund > Past weeks

Flag for Norway Past Weather in Haugesund, Norway — Yesterday and Last 2 Weeks

Now
55 °F

Light rain. Partly sunny.


Feels Like: 51 °F
Forecast: 52 / 56 °F
Wind: 16 mph from North

Location: Karmoy

Current Time: Jun 26, 2016 at 8:26:31 AM

Latest Report: Jun 26, 2016 at 7:50 AM


Visibility: 4 mi

Pressure: 29.77 "Hg

Humidity: 100%

Dew Point: 55 °F

Location of HaugesundLocation

Past Weather in Haugesund — Graph

°F

Haugesund Temperature Yesterday

Maximum temperature yesterday: 63 °F (at 1:20 PM)
Minimum temperature yesterday: 54 °F (at 3:20 AM)
Average temperature yesterday: 57 °F

High & Low Weather Summary for the Past Weeks

 TemperatureHumidityPressure
High68 °F (Jun 14, 10:20 AM)100% (Jun 17, 12:50 AM)30.12 "Hg (Jun 17, 12:50 AM)
Low43 °F (Jun 20, 12:50 AM)35% (Jun 14, 10:20 AM)29.53 "Hg (Jun 15, 5:20 AM)
Average57 °F80%29.84 "Hg
* Reported Jun 11 6:20 AM — Jun 26 6:50 AM, Haugesund, Weather by CustomWeather, © 2016

Note: Actual official high and low records may vary slightly from our data, if they occured in-between our weather recording intervals... More about our weather records

Advertising

Haugesund Weather History for the Previous 24 Hours

Scroll right to see more
 ConditionsComfort  
Time TempWeatherWind HumidityBarometerVisibility
6:50 AM
Sun, Jun 26
55 °FDrizzle. Low clouds.14 mph100%29.77 "Hg4 mi
6:20 AM55 °FDrizzle. Low clouds.12 mph100%29.80 "Hg3 mi
5:50 AM55 °FMostly cloudy.12 mph94%29.80 "Hg3 mi
5:20 AM54 °FDrizzle. Low clouds.13 mph100%29.83 "Hg2 mi
4:50 AM54 °FLight rain. Low clouds.13 mph100%29.83 "Hg2 mi
4:20 AM54 °FLow clouds.14 mph100%29.86 "Hg2 mi
3:50 AM54 °FDense fog.14 mph100%29.89 "Hg0 mi
3:20 AM54 °FFog.17 mph100%29.89 "Hg0 mi
2:50 AM54 °FFog.15 mph100%29.89 "Hg0 mi
2:20 AM54 °FFog.16 mph100%29.89 "Hg0 mi
1:50 AM54 °FFog.16 mph100%29.92 "Hg0 mi
1:20 AM54 °FFog.15 mph94%29.92 "Hg0 mi
12:50 AM54 °FFog.15 mph94%29.95 "Hg0 mi
12:20 AM54 °FLow clouds.15 mph94%29.95 "Hg6 mi
11:50 PM
Sat, Jun 25
54 °FLow clouds.13 mph94%29.98 "HgN/A
11:20 PM54 °FLow clouds.13 mph94%29.98 "HgN/A
10:50 PM54 °FLow clouds.13 mph94%30.01 "HgN/A
10:20 PM55 °FLow clouds.13 mph94%30.01 "HgN/A
9:50 PM55 °FPartly sunny.13 mph94%30.01 "HgN/A
9:20 PM57 °FScattered clouds.13 mph88%30.01 "HgN/A
8:50 PM57 °FPartly sunny.12 mph88%30.01 "HgN/A
8:20 PM57 °FPartly sunny.12 mph88%30.01 "HgN/A
7:50 PM57 °FPartly sunny.12 mph88%29.98 "HgN/A
7:20 PM57 °FPartly sunny.12 mph88%29.98 "HgN/A
6:50 PM59 °FScattered clouds.10 mph82%30.01 "HgN/A
6:20 PM59 °FScattered clouds.12 mph88%30.01 "HgN/A
5:50 PM59 °FScattered clouds.9 mph88%30.01 "HgN/A
5:20 PM59 °FScattered clouds.14 mph88%30.01 "HgN/A
4:50 PM59 °FScattered clouds.14 mph88%30.01 "HgN/A
4:20 PM61 °FScattered clouds.12 mph83%30.04 "HgN/A
3:50 PM61 °FScattered clouds.12 mph77%30.04 "HgN/A
3:20 PM61 °FScattered clouds.12 mph83%30.04 "HgN/A
2:50 PM61 °FScattered clouds.10 mph83%30.04 "HgN/A
2:20 PM61 °FScattered clouds.9 mph83%30.04 "HgN/A
1:50 PM61 °FPartly sunny.8 mph77%30.04 "HgN/A
1:20 PM63 °FScattered clouds.7 mph77%30.04 "HgN/A
12:50 PM61 °FScattered clouds.6 mph77%30.04 "HgN/A
11:50 AM59 °FLow clouds.5 mph82%30.07 "HgN/A
11:20 AM59 °FPartly sunny.5 mph82%30.07 "HgN/A
10:50 AM59 °FMostly cloudy.5 mph82%30.07 "HgN/A
10:20 AM57 °FMore clouds than sun.3 mph88%30.07 "Hg5 mi
9:50 AM57 °FBroken clouds.1 mph88%30.04 "HgN/A
9:20 AM55 °FPartly sunny.5 mph94%30.04 "Hg5 mi
8:50 AM57 °FLow clouds.5 mph88%30.07 "HgN/A
8:20 AM55 °FLow clouds.3 mph100%30.04 "HgN/A
Weather by CustomWeather, © 2016

See weather overviewHow to use our weather pages